This is the latest recevied weather packets stored in our database for station/object KD7AWQ. If no packets are shown the sender has not sent any weather packets the latest 10 day(s).
| Time | Temp. | Humidity | Pressure | Rain* | Wind** | Luminosity | Snow |
|---|---|---|---|---|---|---|---|
| 1778080475 | 15.56° C | 37% | 1185.7 hPa | 0 mm | - | 499 W/m² | - |
| 1778080172 | 15.56° C | 36% | 1185.6 hPa | 0 mm | - | 477 W/m² | - |
| 1778079868 | 15° C | 37% | 1185.7 hPa | 0 mm | - | 454 W/m² | - |
| 1778079565 | 14.44° C | 38% | 1185.4 hPa | 0 mm | - | 431 W/m² | - |
| 1778079262 | 14.44° C | 38% | 1185.3 hPa | 0 mm | - | 201 W/m² | - |
| 1778078959 | 14.44° C | 39% | 1185.4 hPa | 0 mm | - | 60 W/m² | - |
| 1778078655 | 14.44° C | 40% | 1185.3 hPa | 0 mm | - | 366 W/m² | - |
| 1778078354 | 14.44° C | 39% | 1185.3 hPa | 0 mm | - | 360 W/m² | - |
| 1778078051 | 13.89° C | 40% | 1185.3 hPa | 0 mm | - | 323 W/m² | - |
| 1778077749 | 14.44° C | 40% | 1185.5 hPa | 0 mm | - | 266 W/m² | - |
| 1778077447 | 14.44° C | 40% | 1185.3 hPa | 0 mm | - | 277 W/m² | - |
| 1778077145 | 14.44° C | 41% | 1185.4 hPa | 0 mm | - | 256 W/m² | - |
| 1778076842 | 13.89° C | 41% | 1185.7 hPa | 0 mm | - | 236 W/m² | - |
| 1778076540 | 14.44° C | 41% | 1185.4 hPa | 0 mm | - | 214 W/m² | - |
| 1778076237 | 14.44° C | 37% | 1185.3 hPa | 0 mm | - | 193 W/m² | - |
| 1778075934 | 14.44° C | 39% | 1185 hPa | 0 mm | - | 173 W/m² | - |
| 1778075631 | 13.89° C | 39% | 1185.3 hPa | 0 mm | - | 156 W/m² | - |
| 1778075327 | 13.89° C | 40% | 1185.3 hPa | 0 mm | - | 138 W/m² | - |
| 1778075023 | 13.33° C | 41% | 1184.9 hPa | 0 mm | - | 48 W/m² | - |
| 1778074720 | 13.33° C | 43% | 1185.2 hPa | 0 mm | - | 105 W/m² | - |
| 1778074417 | 12.78° C | 43% | 1184.8 hPa | 0 mm | - | 90 W/m² | - |
| 1778074114 | 12.78° C | 45% | 1185.2 hPa | 0 mm | - | 78 W/m² | - |
| 1778073811 | 12.22° C | 45% | 1185.2 hPa | 0 mm | - | 67 W/m² | - |
| 1778073509 | 11.67° C | 45% | 1185.2 hPa | 0 mm | - | 58 W/m² | - |
| 1778073205 | 11.67° C | 46% | 1185 hPa | 0 mm | - | 49 W/m² | - |
* Rain latest hour (hover to see other rain measurements)
** Current wind speed in m/s (hover to see current wind gust speed)